Location: Kono
(14.7932°N, 3.0299°W)
Time: 11:19:35
(UTC+00:00)

Daily predictions for brighter satellites

Satellite Brightness Start Highest point End
(mag) Time Altitude Azimuth Time Altitude Azimuth Time Altitude Azimuth
Aurora 2 Rocket 4.0 18:54:07 10° W 18:59:23 59° NNW 19:07:01 10° ENE
Cosmos 2034 Rocket 4.0 18:53:14 10° N 18:59:32 75° E 19:05:52 10° S
ASTRO E2 4.0 19:01:21 10° SSW 19:04:25 21° SE 19:07:28 10° E
USA 307 3.0 19:01:52 10° NNW 19:06:03 58° NE 19:10:12 10° SE
Ariane H10+ 3.9 19:01:38 10° SW 19:06:22 30° SSE 19:18:10 10° E
Okean-O 3.6 19:02:40 10° SE 19:06:29 29° ENE 19:10:17 10° NNE
USA 238 DEB 4.0 19:04:49 10° NNW 19:12:22 73° ENE 19:20:01 10° SSE
USA 238 4.0 19:04:56 10° NNW 19:12:28 72° ENE 19:20:08 10° SSE
Cosmos 1125 Rocket 3.7 19:12:29 10° N 19:17:41 56° ENE 19:22:50 10° SSE
Hubble Space Telescope 3.1 19:15:36 10° NNW 19:18:07 15° NNE 19:20:36 10° NE
USA 305 2.9 19:14:52 10° NW 19:19:03 82° SW 19:23:13 10° SSE
Cosmos 1633 3.9 19:17:39 10° SE 19:20:15 19° E 19:22:52 10° NE
ARGOS 3.3 19:16:21 10° S 19:21:46 82° WSW 19:27:11 10° NNW
USA 308 2.9 19:19:04 10° NW 19:23:17 84° WSW 19:27:28 10° SSE
NOSS 2 (A) 4.3 19:22:52 10° N 19:25:08 44° ENE 19:26:37 19° SE
GPS 2-12 Rocket1 3.7 19:28:12 10° W 19:32:50 49° SSW 19:36:07 18° SE
HJ-1C 3.4 19:29:38 10° S 19:32:53 77° WSW 19:36:08 10° NNW
ASTRO F (AKARI) 4.2 19:29:50 10° S 19:32:57 84° WSW 19:36:10 10° NNW
H-2A R/B 3.9 19:28:33 10° SSW 19:33:17 32° W 19:37:56 10° NW
SAR-Lupe-4 4.3 19:30:45 10° NE 19:33:56 31° E 19:37:09 10° SSE
Cosmos 2150 Rocket 4.3 19:29:24 10° NNW 19:34:50 73° WSW 19:40:15 10° S
Cosmos 1634 Rocket 3.9 19:30:53 10° N 19:37:01 66° E 19:43:08 10° SSE
NOSS 2-1 (E) 3.9 19:34:46 10° S 19:38:48 33° ESE 19:42:03 10° NE
Cosmos 1242 Rocket 2.8 19:39:37 10° N 19:42:57 43° E 19:44:16 28° SE
USA 306 4.0 19:39:33 10° NW 19:43:32 39° WSW 19:47:13 12° S
Cosmos 2058 3.6 19:40:09 10° SSW 19:44:13 56° W 19:48:19 10° N
Cosmos 1689 Rocket 2.3 19:42:51 10° N 19:45:32 60° WNW 19:48:13 10° SSW
Cosmos 1538 Rocket 4.2 19:41:12 10° SSW 19:46:26 72° WNW 19:51:37 10° N
CZ-4 R/B 3.1 19:43:59 10° SSW 19:47:45 34° W 19:51:34 10° NW
OBJECT-B 1.9 19:49:48 26° ENE 19:49:48 26° ENE 19:52:07 10° NNE
Cosmos 2098 Rocket 3.0 19:53:41 32° NE 19:53:41 32° NE 19:55:48 10° NNE
USA 186 2.1 19:53:03 41° ENE 19:53:03 41° ENE 19:55:53 10° N
GPS 2-18 Rocket1 2.9 19:53:14 10° WSW 19:57:01 65° SSE 19:57:50 48° ESE
Cosmos 1437 2.5 19:56:21 10° N 19:58:39 57° NNE 19:58:39 57° NNE
Cosmos 1697 Rocket 2.8 19:53:39 10° N 19:59:09 53° ENE 20:01:31 32° SE
Cosmos 1656 4.5 20:03:34 10° NNW 20:08:51 48° WSW 20:13:49 11° S
Cosmos 1842 Rocket 3.5 20:11:42 10° N 20:16:06 61° E 20:16:09 61° E
Delta 128 4.3 20:09:29 10° SW 20:16:30 68° SSE 20:18:38 42° E
Cosmos 1092 Rocket 4.2 20:15:43 42° ESE 20:16:51 46° E 20:22:47 10° NNE
Cosmos 2151 2.9 20:22:44 72° NE 20:22:44 72° NE 20:26:37 10° N
SJ-6B 3.0 20:23:03 59° N 20:23:03 59° N 20:26:07 10° N
Cosmos 2279 Rocket 4.0 20:16:48 10° N 20:22:59 79° W 20:27:15 21° S
NOSS 2-1 (C) 4.4 20:18:52 10° SW 20:23:03 43° WNW 20:26:24 10° N
Cosmos 2026 Rocket 4.4 20:26:25 42° ENE 20:26:25 42° ENE 20:31:45 10° NNE
Atlas Centaur 2 4.1 20:24:31 10° NNW 20:25:54 11° N 20:27:13 10° NNE
ATLAS 3B R/B 3.9 20:21:07 10° N 20:27:06 27° ENE 20:27:19 27° ENE
Cosmos 1606 4.0 20:24:12 10° N 20:26:16 30° NNE 20:26:16 30° NNE
Cosmos 923 Rocket 4.4 20:27:16 10° SSW 20:32:30 63° WNW 20:37:47 10° N
Nadezhda 4 Rocket 4.4 20:28:04 10° SSW 20:34:04 60° W 20:40:10 10° N
Palapa 6 Rocket 4.4 20:32:13 10° WNW 20:35:34 26° N 20:35:35 26° N
DMSP B5D2-7 4.5 20:35:05 74° SE 20:35:34 83° ENE 20:41:01 10° N
Cosmos 2221 2.8 20:31:20 10° NNW 20:35:37 62° W 20:35:41 62° W
Helios 1A Rocket 3.5 20:37:14 54° NW 20:37:14 54° NW 20:40:29 10° NNW
ARIANE 5 R/B 4.0 20:30:14 10° W 20:42:12 43° SSW 20:42:18 43° SSW
ERS-2 3.7 20:39:30 10° N 20:42:23 33° WNW 20:42:23 33° WNW
ASTRO E2 4.3 20:40:48 10° WSW 20:43:04 31° W 20:43:04 31° W
Cosmos 1627 Rocket 4.4 20:47:56 76° ENE 20:47:56 76° ENE 20:54:04 10° N
Cosmos 1980 Rocket 2.3 20:43:14 10° NNW 20:48:05 65° NNE 20:48:05 65° NNE
Cosmos 1428 Rocket 4.4 20:54:09 71° NNE 20:54:09 71° NNE 20:59:35 10° N
Cosmos 2369 4.0 20:51:03 10° NNW 20:56:35 59° WSW 20:56:40 59° WSW
Hubble Space Telescope 3.0 20:55:50 10° NW 20:57:39 23° NW 20:57:39 23° NW
Resurs 01 Rocket 4.0 21:08:50 17° N 21:08:50 17° N 21:09:51 10° N
SL-16 R/B 4.5 21:27:16 10° N 21:28:20 15° N 21:28:20 15° N
ATLAS 3B R/B 4.4 22:10:54 10° NW 22:14:36 28° WNW 22:14:36 28° WNW
